This is the latest recevied weather packets stored in our database for station/object W4UWO. If no packets are shown the sender has not sent any weather packets the latest 10 day(s).
| Time | Temp. | Humidity | Pressure | Rain* | Wind** | Luminosity | Snow |
|---|---|---|---|---|---|---|---|
| 1788448409 | 33.89° C | 51% | 1019.1 hPa | 0 mm | - | 605 W/m² | - |
| 1788448108 | 33.33° C | 53% | 1018.9 hPa | 0 mm | - | 587 W/m² | - |
| 1788447803 | 33.33° C | 54% | 1019 hPa | 0 mm | - | 572 W/m² | - |
| 1788447498 | 33.33° C | 53% | 1018.9 hPa | 0 mm | - | 561 W/m² | - |
| 1788447193 | 33.33° C | 55% | 1019.1 hPa | 0 mm | - | 545 W/m² | - |
| 1788446893 | 32.78° C | 57% | 1019.2 hPa | 0 mm | - | 529 W/m² | - |
| 1788446588 | 32.22° C | 57% | 1018.9 hPa | 0 mm | - | 516 W/m² | - |
| 1788446283 | 32.22° C | 58% | 1019.1 hPa | 0 mm | - | 484 W/m² | - |
| 1788445980 | 31.67° C | 59% | 1019 hPa | 0 mm | - | 466 W/m² | - |
| 1788445675 | 31.11° C | 60% | 1019.2 hPa | 0 mm | - | 451 W/m² | - |
| 1788445371 | 31.11° C | 60% | 1019 hPa | 0 mm | - | 436 W/m² | - |
| 1788445067 | 31.11° C | 63% | 1019 hPa | 0 mm | - | 419 W/m² | - |
| 1788444763 | 31.11° C | 62% | 1019.2 hPa | 0 mm | - | 405 W/m² | - |
| 1788444463 | 30.56° C | 63% | 1019.1 hPa | 0 mm | - | 387 W/m² | - |
| 1788444158 | 30.56° C | 64% | 1019.1 hPa | 0 mm | - | 371 W/m² | - |
| 1788443854 | 30° C | 65% | 1019.1 hPa | 0 mm | - | 354 W/m² | - |
| 1788443549 | 29.44° C | 66% | 1019.2 hPa | 0 mm | - | 336 W/m² | - |
| 1788443247 | 28.89° C | 67% | 1019.2 hPa | 0 mm | - | 251 W/m² | - |
| 1788442944 | 28.89° C | 68% | 1019.4 hPa | 0 mm | - | 102 W/m² | - |
| 1788442641 | 28.89° C | 69% | 1019.4 hPa | 0 mm | - | 285 W/m² | - |
| 1788442338 | 29.44° C | 69% | 1019.2 hPa | 0 mm | - | 110 W/m² | - |
| 1788442037 | 28.89° C | 69% | 1019.1 hPa | 0 mm | - | 159 W/m² | - |
| 1788441732 | 28.89° C | 70% | 1019.3 hPa | 0 mm | - | 221 W/m² | - |
| 1788441427 | 28.33° C | 71% | 1019.5 hPa | 0 mm | - | 213 W/m² | - |
| 1788441126 | 27.78° C | 73% | 1019.5 hPa | 0 mm | - | 201 W/m² | - |
* Rain latest hour (hover to see other rain measurements)
** Current wind speed in m/s (hover to see current wind gust speed)